Year,Month,Day,Hour,Minute,Value (Times are PST for temperature in C)
2017,07,15,00,00,15.20
2017,07,15,00,01,15.20
2017,07,15,00,02,15.10
2017,07,15,00,03,15.00
2017,07,15,00,04,15.00
2017,07,15,00,05,15.00
2017,07,15,00,06,15.00
2017,07,15,00,07,15.00
2017,07,15,00,08,15.00
2017,07,15,00,09,15.00
2017,07,15,00,10,15.00
2017,07,15,00,11,15.00
2017,07,15,00,12,15.00
2017,07,15,00,13,15.00
2017,07,15,00,14,15.00
2017,07,15,00,15,15.00
2017,07,15,00,16,15.00
2017,07,15,00,17,15.00
2017,07,15,00,18,15.00
2017,07,15,00,19,15.00
2017,07,15,00,20,15.00
2017,07,15,00,21,15.00
2017,07,15,00,22,15.00
2017,07,15,00,23,15.00
2017,07,15,00,24,15.00
2017,07,15,00,25,14.90
2017,07,15,00,26,14.90
2017,07,15,00,27,14.90
2017,07,15,00,28,15.00
2017,07,15,00,29,15.00
2017,07,15,00,30,15.00
2017,07,15,00,31,15.00
2017,07,15,00,32,15.00
2017,07,15,00,33,15.00
2017,07,15,00,34,15.00
2017,07,15,00,35,15.00
2017,07,15,00,36,15.00
2017,07,15,00,37,15.00
2017,07,15,00,38,15.00
2017,07,15,00,39,15.00
2017,07,15,00,40,15.00
2017,07,15,00,41,15.00
2017,07,15,00,42,15.00
2017,07,15,00,43,15.00
2017,07,15,00,44,15.00
2017,07,15,00,45,15.00
2017,07,15,00,46,15.00
2017,07,15,00,47,14.90
2017,07,15,00,48,14.90
2017,07,15,00,49,14.90
2017,07,15,00,50,14.80
2017,07,15,00,51,14.80
2017,07,15,00,52,14.80
2017,07,15,00,53,14.80
2017,07,15,00,54,14.80
2017,07,15,00,55,14.70
2017,07,15,00,56,14.70
2017,07,15,00,57,14.70
2017,07,15,00,58,14.70
2017,07,15,00,59,14.70
2017,07,15,01,00,14.70
2017,07,15,01,01,14.70
2017,07,15,01,02,14.70
2017,07,15,01,03,14.70
2017,07,15,01,04,14.70
2017,07,15,01,05,14.70
2017,07,15,01,06,14.70
2017,07,15,01,07,14.60
2017,07,15,01,08,14.60
2017,07,15,01,09,14.60
2017,07,15,01,10,14.50
2017,07,15,01,11,14.50
2017,07,15,01,12,14.40
2017,07,15,01,13,14.40
2017,07,15,01,14,14.40
2017,07,15,01,15,14.40
2017,07,15,01,16,14.40
2017,07,15,01,17,14.30
2017,07,15,01,18,14.30
2017,07,15,01,19,14.30
2017,07,15,01,20,14.30
2017,07,15,01,21,14.30
2017,07,15,01,22,14.30
2017,07,15,01,23,14.30
2017,07,15,01,24,14.30
2017,07,15,01,25,14.30
2017,07,15,01,26,14.30
2017,07,15,01,27,14.30
2017,07,15,01,28,14.30
2017,07,15,01,29,14.30
2017,07,15,01,30,14.30
2017,07,15,01,31,14.30
2017,07,15,01,32,14.30
2017,07,15,01,33,14.30
2017,07,15,01,34,14.20
2017,07,15,01,35,14.20
2017,07,15,01,36,14.20
2017,07,15,01,37,14.20
2017,07,15,01,38,14.20
2017,07,15,01,39,14.20
2017,07,15,01,40,14.20
2017,07,15,01,41,14.10
2017,07,15,01,42,14.10
2017,07,15,01,43,14.10
2017,07,15,01,44,14.10
2017,07,15,01,45,14.10
2017,07,15,01,46,14.10
2017,07,15,01,47,14.10
2017,07,15,01,48,14.10
2017,07,15,01,49,14.10
2017,07,15,01,50,14.10
2017,07,15,01,51,14.10
2017,07,15,01,52,14.00
2017,07,15,01,53,14.00
2017,07,15,01,54,14.00
2017,07,15,01,55,14.00
2017,07,15,01,56,13.90
2017,07,15,01,57,13.90
2017,07,15,01,58,13.90
2017,07,15,01,59,13.90
2017,07,15,02,00,13.90
2017,07,15,02,01,13.80
2017,07,15,02,02,13.80
2017,07,15,02,03,13.80
2017,07,15,02,04,13.80
2017,07,15,02,05,13.80
2017,07,15,02,06,13.70
2017,07,15,02,07,13.70
2017,07,15,02,08,13.70
2017,07,15,02,09,13.70
2017,07,15,02,10,13.70
2017,07,15,02,11,13.70
2017,07,15,02,12,13.70
2017,07,15,02,13,13.70
2017,07,15,02,14,13.70
2017,07,15,02,15,13.70
2017,07,15,02,16,13.70
2017,07,15,02,17,13.70
2017,07,15,02,18,13.70
2017,07,15,02,19,13.70
2017,07,15,02,20,13.70
2017,07,15,02,21,13.70
2017,07,15,02,22,13.70
2017,07,15,02,23,13.70
2017,07,15,02,24,13.70
2017,07,15,02,25,13.70
2017,07,15,02,26,13.70
2017,07,15,02,27,13.70
2017,07,15,02,28,13.70
2017,07,15,02,29,13.70
2017,07,15,02,30,13.70
2017,07,15,02,31,13.70
2017,07,15,02,32,13.70
2017,07,15,02,33,13.70
2017,07,15,02,34,13.70
2017,07,15,02,35,13.70
2017,07,15,02,36,13.70
2017,07,15,02,37,13.70
2017,07,15,02,38,13.70
2017,07,15,02,39,13.70
2017,07,15,02,40,13.70
2017,07,15,02,41,13.70
2017,07,15,02,42,13.70
2017,07,15,02,43,13.70
2017,07,15,02,44,13.70
2017,07,15,02,45,13.70
2017,07,15,02,46,13.70
2017,07,15,02,47,13.70
2017,07,15,02,48,13.70
2017,07,15,02,49,13.70
2017,07,15,02,50,13.70
2017,07,15,02,51,13.70
2017,07,15,02,52,13.70
2017,07,15,02,53,13.70
2017,07,15,02,54,13.70
2017,07,15,02,55,13.70
2017,07,15,02,56,13.70
2017,07,15,02,57,13.70
2017,07,15,02,58,13.70
2017,07,15,02,59,13.70
2017,07,15,03,00,13.70
2017,07,15,03,01,13.60
2017,07,15,03,02,13.60
2017,07,15,03,03,13.60
2017,07,15,03,04,13.60
2017,07,15,03,05,13.60
2017,07,15,03,06,13.60
2017,07,15,03,07,13.60
2017,07,15,03,08,13.60
2017,07,15,03,09,13.50
2017,07,15,03,10,13.50
2017,07,15,03,11,13.50
2017,07,15,03,12,13.40
2017,07,15,03,13,13.40
2017,07,15,03,14,13.40
2017,07,15,03,15,13.40
2017,07,15,03,16,13.30
2017,07,15,03,17,13.30
2017,07,15,03,18,13.30
2017,07,15,03,19,13.30
2017,07,15,03,20,13.20
2017,07,15,03,21,13.20
2017,07,15,03,22,13.20
2017,07,15,03,23,13.10
2017,07,15,03,24,13.10
2017,07,15,03,25,13.00
2017,07,15,03,26,13.00
2017,07,15,03,27,12.90
2017,07,15,03,28,12.90
2017,07,15,03,29,12.90
2017,07,15,03,30,12.80
2017,07,15,03,31,12.80
2017,07,15,03,32,12.80
2017,07,15,03,33,12.70
2017,07,15,03,34,12.70
2017,07,15,03,35,12.70
2017,07,15,03,36,12.70
2017,07,15,03,37,12.60
2017,07,15,03,38,12.60
2017,07,15,03,39,12.60
2017,07,15,03,40,12.60
2017,07,15,03,41,12.50
2017,07,15,03,42,12.50
2017,07,15,03,43,12.50
2017,07,15,03,44,12.40
2017,07,15,03,45,12.40
2017,07,15,03,46,12.40
2017,07,15,03,47,12.40
2017,07,15,03,48,12.30
2017,07,15,03,49,12.30
2017,07,15,03,50,12.30
2017,07,15,03,51,12.30
2017,07,15,03,52,12.20
2017,07,15,03,53,12.20
2017,07,15,03,54,12.20
2017,07,15,03,55,12.20
2017,07,15,03,56,12.10
2017,07,15,03,57,12.10
2017,07,15,03,58,12.10
2017,07,15,03,59,12.00
2017,07,15,04,00,12.00
2017,07,15,04,01,12.00
2017,07,15,04,02,11.90
2017,07,15,04,03,11.90
2017,07,15,04,04,11.90
2017,07,15,04,05,11.90
2017,07,15,04,06,11.90
2017,07,15,04,07,11.90
2017,07,15,04,08,11.90
2017,07,15,04,09,11.90
2017,07,15,04,10,11.90
2017,07,15,04,11,11.90
2017,07,15,04,12,11.90
2017,07,15,04,13,11.90
2017,07,15,04,14,11.90
2017,07,15,04,15,11.90
2017,07,15,04,16,11.90
2017,07,15,04,17,11.90
2017,07,15,04,18,11.90
2017,07,15,04,19,11.90
2017,07,15,04,20,11.90
2017,07,15,04,21,11.80
2017,07,15,04,22,11.80
2017,07,15,04,23,11.80
2017,07,15,04,24,11.80
2017,07,15,04,25,11.70
2017,07,15,04,26,11.70
2017,07,15,04,27,11.70
2017,07,15,04,28,11.70
2017,07,15,04,29,11.70
2017,07,15,04,30,11.70
2017,07,15,04,31,11.60
2017,07,15,04,32,11.60
2017,07,15,04,33,11.60
2017,07,15,04,34,11.60
2017,07,15,04,35,11.60
2017,07,15,04,36,11.60
2017,07,15,04,37,11.60
2017,07,15,04,38,11.50
2017,07,15,04,39,11.50
2017,07,15,04,40,11.50
2017,07,15,04,41,11.50
2017,07,15,04,42,11.50
2017,07,15,04,43,11.50
2017,07,15,04,44,11.40
2017,07,15,04,45,11.40
2017,07,15,04,46,11.40
2017,07,15,04,47,11.30
2017,07,15,04,48,11.30
2017,07,15,04,49,11.30
2017,07,15,04,50,11.30
2017,07,15,04,51,11.30
2017,07,15,04,52,11.30
2017,07,15,04,53,11.30
2017,07,15,04,54,11.20
2017,07,15,04,55,11.20
2017,07,15,04,56,11.20
2017,07,15,04,57,11.20
2017,07,15,04,58,11.20
2017,07,15,04,59,11.10
2017,07,15,05,00,11.10
2017,07,15,05,01,11.10
2017,07,15,05,02,11.10
2017,07,15,05,03,11.10
2017,07,15,05,04,11.10
2017,07,15,05,05,11.10
2017,07,15,05,06,11.10
2017,07,15,05,07,11.00
2017,07,15,05,08,11.00
2017,07,15,05,09,11.00
2017,07,15,05,10,11.00
2017,07,15,05,11,11.00
2017,07,15,05,12,11.00
2017,07,15,05,13,11.00
2017,07,15,05,14,11.00
2017,07,15,05,15,11.00
2017,07,15,05,16,11.00
2017,07,15,05,17,10.90
2017,07,15,05,18,10.90
2017,07,15,05,19,10.90
2017,07,15,05,20,10.90
2017,07,15,05,21,10.90
2017,07,15,05,22,10.90
2017,07,15,05,23,10.90
2017,07,15,05,24,10.80
2017,07,15,05,25,10.80
2017,07,15,05,26,10.80
2017,07,15,05,27,10.80
2017,07,15,05,28,10.80
2017,07,15,05,29,10.80
2017,07,15,05,30,10.80
2017,07,15,05,31,10.80
2017,07,15,05,32,10.80
2017,07,15,05,33,10.80
2017,07,15,05,34,10.80
2017,07,15,05,35,10.70
2017,07,15,05,36,10.70
2017,07,15,05,37,10.70
2017,07,15,05,38,10.70
2017,07,15,05,39,10.70
2017,07,15,05,40,10.70
2017,07,15,05,41,10.70
2017,07,15,05,42,10.70
2017,07,15,05,43,10.70
2017,07,15,05,44,10.70
2017,07,15,05,45,10.70
2017,07,15,05,46,10.70
2017,07,15,05,47,10.80
2017,07,15,05,48,10.80
2017,07,15,05,49,10.80
2017,07,15,05,50,10.80
2017,07,15,05,51,10.80
2017,07,15,05,52,10.80
2017,07,15,05,53,10.80
2017,07,15,05,54,10.80
2017,07,15,05,55,10.80
2017,07,15,05,56,10.80
2017,07,15,05,57,10.80
2017,07,15,05,58,10.80
2017,07,15,05,59,10.80
2017,07,15,06,00,10.80
2017,07,15,06,01,10.80
2017,07,15,06,02,10.80
2017,07,15,06,03,10.80
2017,07,15,06,04,10.80
2017,07,15,06,05,10.70
2017,07,15,06,06,10.70
2017,07,15,06,07,10.70
2017,07,15,06,08,10.70
2017,07,15,06,09,10.70
2017,07,15,06,10,10.70
2017,07,15,06,11,10.70
2017,07,15,06,12,10.70
2017,07,15,06,13,10.70
2017,07,15,06,14,10.70
2017,07,15,06,15,10.70
2017,07,15,06,16,10.70
2017,07,15,06,17,10.70
2017,07,15,06,18,10.70
2017,07,15,06,19,10.70
2017,07,15,06,20,10.70
2017,07,15,06,21,10.70
2017,07,15,06,22,10.80
2017,07,15,06,23,10.70
2017,07,15,06,24,10.70
2017,07,15,06,25,10.70
2017,07,15,06,26,10.70
2017,07,15,06,27,10.70
2017,07,15,06,28,10.70
2017,07,15,06,29,10.80
2017,07,15,06,30,10.80
2017,07,15,06,31,10.80
2017,07,15,06,32,10.70
2017,07,15,06,33,10.80
2017,07,15,06,34,10.80
2017,07,15,06,35,10.80
2017,07,15,06,36,10.80
2017,07,15,06,37,10.70
2017,07,15,06,38,10.80
2017,07,15,06,39,10.80
2017,07,15,06,40,10.80
2017,07,15,06,41,10.80
2017,07,15,06,42,10.80
2017,07,15,06,43,10.80
2017,07,15,06,44,10.80
2017,07,15,06,45,10.80
2017,07,15,06,46,10.80
2017,07,15,06,47,10.80
2017,07,15,06,48,10.80
2017,07,15,06,49,10.80
2017,07,15,06,50,10.80
2017,07,15,06,51,10.80
2017,07,15,06,52,10.80
2017,07,15,06,53,10.80
2017,07,15,06,54,10.80
2017,07,15,06,55,10.80
2017,07,15,06,56,10.80
2017,07,15,06,57,10.80
2017,07,15,06,58,10.80
2017,07,15,06,59,10.90
2017,07,15,07,00,10.90
2017,07,15,07,01,10.90
2017,07,15,07,02,10.90
2017,07,15,07,03,10.90
2017,07,15,07,04,11.00
2017,07,15,07,05,11.10
2017,07,15,07,06,11.10
2017,07,15,07,07,11.20
2017,07,15,07,08,11.20
2017,07,15,07,09,11.20
2017,07,15,07,10,11.30
2017,07,15,07,11,11.30
2017,07,15,07,12,11.30
2017,07,15,07,13,11.30
2017,07,15,07,14,11.40
2017,07,15,07,15,11.40
2017,07,15,07,16,11.40
2017,07,15,07,17,11.40
2017,07,15,07,18,11.40
2017,07,15,07,19,11.40
2017,07,15,07,20,11.40
2017,07,15,07,21,11.40
2017,07,15,07,22,11.40
2017,07,15,07,23,11.40
2017,07,15,07,24,11.40
2017,07,15,07,25,11.40
2017,07,15,07,26,11.40
2017,07,15,07,27,11.50
2017,07,15,07,28,11.50
2017,07,15,07,29,11.50
2017,07,15,07,30,11.50
2017,07,15,07,31,11.50
2017,07,15,07,32,11.60
2017,07,15,07,33,11.60
2017,07,15,07,34,11.60
2017,07,15,07,35,11.70
2017,07,15,07,36,11.70
2017,07,15,07,37,11.80
2017,07,15,07,38,11.80
2017,07,15,07,39,11.80
2017,07,15,07,40,11.80
2017,07,15,07,41,11.90
2017,07,15,07,42,11.90
2017,07,15,07,43,11.90
2017,07,15,07,44,12.00
2017,07,15,07,45,12.00
2017,07,15,07,46,12.00
2017,07,15,07,47,12.10
2017,07,15,07,48,12.20
2017,07,15,07,49,12.20
2017,07,15,07,50,12.20
2017,07,15,07,51,12.20
2017,07,15,07,52,12.30
2017,07,15,07,53,12.30
2017,07,15,07,54,12.30
2017,07,15,07,55,12.40
2017,07,15,07,56,12.40
2017,07,15,07,57,12.40
2017,07,15,07,58,12.50
2017,07,15,07,59,12.50
2017,07,15,08,00,12.60
2017,07,15,08,01,12.60
2017,07,15,08,02,12.70
2017,07,15,08,03,12.80
2017,07,15,08,04,12.80
2017,07,15,08,05,12.90
2017,07,15,08,06,13.00
2017,07,15,08,07,13.10
2017,07,15,08,08,13.10
2017,07,15,08,09,13.20
2017,07,15,08,10,13.30
2017,07,15,08,11,13.40
2017,07,15,08,12,13.40
2017,07,15,08,13,13.50
2017,07,15,08,14,13.60
2017,07,15,08,15,13.60
2017,07,15,08,16,13.70
2017,07,15,08,17,13.80
2017,07,15,08,18,13.90
2017,07,15,08,19,13.90
2017,07,15,08,20,14.00
2017,07,15,08,21,14.00
2017,07,15,08,22,14.10
2017,07,15,08,23,14.10
2017,07,15,08,24,14.20
2017,07,15,08,25,14.20
2017,07,15,08,26,14.20
2017,07,15,08,27,14.30
2017,07,15,08,28,14.40
2017,07,15,08,29,14.40
2017,07,15,08,30,14.50
2017,07,15,08,31,14.60
2017,07,15,08,32,14.70
2017,07,15,08,33,14.80
2017,07,15,08,34,14.80
2017,07,15,08,35,14.90
2017,07,15,08,36,15.00
2017,07,15,08,37,15.00
2017,07,15,08,38,15.00
2017,07,15,08,39,15.00
2017,07,15,08,40,15.00
2017,07,15,08,41,15.00
2017,07,15,08,42,15.00
2017,07,15,08,43,15.00
2017,07,15,08,44,15.00
2017,07,15,08,45,15.00
2017,07,15,08,46,15.00
2017,07,15,08,47,15.00
2017,07,15,08,48,15.00
2017,07,15,08,49,15.00
2017,07,15,08,50,15.10
2017,07,15,08,51,15.20
2017,07,15,08,52,15.30
2017,07,15,08,53,15.30
2017,07,15,08,54,15.40
2017,07,15,08,55,15.40
2017,07,15,08,56,15.50
2017,07,15,08,57,15.50
2017,07,15,08,58,15.50
2017,07,15,08,59,15.50
2017,07,15,09,00,15.40
2017,07,15,09,01,15.40
2017,07,15,09,02,15.30
2017,07,15,09,03,15.40
2017,07,15,09,04,15.40
2017,07,15,09,05,15.40
2017,07,15,09,06,15.40
2017,07,15,09,07,15.40
2017,07,15,09,08,15.40
2017,07,15,09,09,15.40
2017,07,15,09,10,15.40
2017,07,15,09,11,15.40
2017,07,15,09,12,15.40
2017,07,15,09,13,15.40
2017,07,15,09,14,15.50
2017,07,15,09,15,15.60
2017,07,15,09,16,15.70
2017,07,15,09,17,15.70
2017,07,15,09,18,15.80
2017,07,15,09,19,15.90
2017,07,15,09,20,16.00
2017,07,15,09,21,16.10
2017,07,15,09,22,16.10
2017,07,15,09,23,16.10
2017,07,15,09,24,16.10
2017,07,15,09,25,16.20
2017,07,15,09,26,16.20
2017,07,15,09,27,16.20
2017,07,15,09,28,16.30
2017,07,15,09,29,16.40
2017,07,15,09,30,16.40
2017,07,15,09,31,16.50
2017,07,15,09,32,16.50
2017,07,15,09,33,16.60
2017,07,15,09,34,16.60
2017,07,15,09,35,16.70
2017,07,15,09,36,16.80
2017,07,15,09,37,16.80
2017,07,15,09,38,16.90
2017,07,15,09,39,17.00
2017,07,15,09,40,17.10
2017,07,15,09,41,17.10
2017,07,15,09,42,17.10
2017,07,15,09,43,17.10
2017,07,15,09,44,17.10
2017,07,15,09,45,17.10
2017,07,15,09,46,17.10
2017,07,15,09,47,17.10
2017,07,15,09,48,17.10
2017,07,15,09,49,17.10
2017,07,15,09,50,17.10
2017,07,15,09,51,17.10
2017,07,15,09,52,17.10
2017,07,15,09,53,17.20
2017,07,15,09,54,17.30
2017,07,15,09,55,17.40
2017,07,15,09,56,17.50
2017,07,15,09,57,17.60
2017,07,15,09,58,17.60
2017,07,15,09,59,17.60
2017,07,15,10,00,17.70
2017,07,15,10,01,17.80
2017,07,15,10,02,17.80
2017,07,15,10,03,17.70
2017,07,15,10,04,17.70
2017,07,15,10,05,17.70
2017,07,15,10,06,17.80
2017,07,15,10,07,17.90
2017,07,15,10,08,18.00
2017,07,15,10,09,18.20
2017,07,15,10,10,18.20
2017,07,15,10,11,18.30
2017,07,15,10,12,18.40
2017,07,15,10,13,18.40
2017,07,15,10,14,18.30
2017,07,15,10,15,18.30
2017,07,15,10,16,18.30
2017,07,15,10,17,18.20
2017,07,15,10,18,18.20
2017,07,15,10,19,18.20
2017,07,15,10,20,18.30
2017,07,15,10,21,18.30
2017,07,15,10,22,18.30
2017,07,15,10,23,18.30
2017,07,15,10,24,18.30
2017,07,15,10,25,18.30
2017,07,15,10,26,18.40
2017,07,15,10,27,18.50
2017,07,15,10,28,18.50
2017,07,15,10,29,18.50
2017,07,15,10,30,18.40
2017,07,15,10,31,18.40
2017,07,15,10,32,18.40
2017,07,15,10,33,18.50
2017,07,15,10,34,18.60
2017,07,15,10,35,18.70
2017,07,15,10,36,18.80
2017,07,15,10,37,18.80
2017,07,15,10,38,18.80
2017,07,15,10,39,18.80
2017,07,15,10,40,18.80
2017,07,15,10,41,18.90
2017,07,15,10,42,19.00
2017,07,15,10,43,19.00
2017,07,15,10,44,19.10
2017,07,15,10,45,19.20
2017,07,15,10,46,19.20
2017,07,15,10,47,19.20
2017,07,15,10,48,19.10
2017,07,15,10,49,19.00
2017,07,15,10,50,18.90
2017,07,15,10,51,18.90
2017,07,15,10,52,18.90
2017,07,15,10,53,18.90
2017,07,15,10,54,18.90
2017,07,15,10,55,18.90
2017,07,15,10,56,19.00
2017,07,15,10,57,19.00
2017,07,15,10,58,19.10
2017,07,15,10,59,19.10
2017,07,15,11,00,19.10
2017,07,15,11,01,19.10
2017,07,15,11,02,19.20
2017,07,15,11,03,19.20
2017,07,15,11,04,19.20
2017,07,15,11,05,19.20
2017,07,15,11,06,19.10
2017,07,15,11,07,19.00
2017,07,15,11,08,19.00
2017,07,15,11,09,18.90
2017,07,15,11,10,19.00
2017,07,15,11,11,19.10
2017,07,15,11,12,19.20
2017,07,15,11,13,19.20
2017,07,15,11,14,19.30
2017,07,15,11,15,19.30
2017,07,15,11,16,19.30
2017,07,15,11,17,19.40
2017,07,15,11,18,19.40
2017,07,15,11,19,19.50
2017,07,15,11,20,19.60
2017,07,15,11,21,19.70
2017,07,15,11,22,19.70
2017,07,15,11,23,19.80
2017,07,15,11,24,19.90
2017,07,15,11,25,20.00
2017,07,15,11,26,20.00
2017,07,15,11,27,20.20
2017,07,15,11,28,20.20
2017,07,15,11,29,20.30
2017,07,15,11,30,20.30
2017,07,15,11,31,20.20
2017,07,15,11,32,20.20
2017,07,15,11,33,20.20
2017,07,15,11,34,20.20
2017,07,15,11,35,20.10
2017,07,15,11,36,20.00
2017,07,15,11,37,19.90
2017,07,15,11,38,19.70
2017,07,15,11,39,19.60
2017,07,15,11,40,19.50
2017,07,15,11,41,19.50
2017,07,15,11,42,19.40
2017,07,15,11,43,19.40
2017,07,15,11,44,19.40
2017,07,15,11,45,19.50
2017,07,15,11,46,19.60
2017,07,15,11,47,19.70
2017,07,15,11,48,19.70
2017,07,15,11,49,19.70
2017,07,15,11,50,19.70
2017,07,15,11,51,19.70
2017,07,15,11,52,19.70
2017,07,15,11,53,19.80
2017,07,15,11,54,19.80
2017,07,15,11,55,19.70
2017,07,15,11,56,19.70
2017,07,15,11,57,19.70
2017,07,15,11,58,19.70
2017,07,15,11,59,19.70
2017,07,15,12,00,19.70
2017,07,15,12,01,19.60
2017,07,15,12,02,19.50
2017,07,15,12,03,19.30
2017,07,15,12,04,19.30
2017,07,15,12,05,19.20
2017,07,15,12,06,19.20
2017,07,15,12,07,19.20
2017,07,15,12,08,19.20
2017,07,15,12,09,19.20
2017,07,15,12,10,19.20
2017,07,15,12,11,19.20
2017,07,15,12,12,19.20
2017,07,15,12,13,19.20
2017,07,15,12,14,19.30
2017,07,15,12,15,19.50
2017,07,15,12,16,19.60
2017,07,15,12,17,19.60
2017,07,15,12,18,19.60
2017,07,15,12,19,19.60
2017,07,15,12,20,19.60
2017,07,15,12,21,19.60
2017,07,15,12,22,19.50
2017,07,15,12,23,19.50
2017,07,15,12,24,19.40
2017,07,15,12,25,19.30
2017,07,15,12,26,19.30
2017,07,15,12,27,19.30
2017,07,15,12,28,19.30
2017,07,15,12,29,19.40
2017,07,15,12,30,19.40
2017,07,15,12,31,19.40
2017,07,15,12,32,19.50
2017,07,15,12,33,19.60
2017,07,15,12,34,19.70
2017,07,15,12,35,19.80
2017,07,15,12,36,19.80
2017,07,15,12,37,19.70
2017,07,15,12,38,19.80
2017,07,15,12,39,19.80
2017,07,15,12,40,19.90
2017,07,15,12,41,19.90
2017,07,15,12,42,19.90
2017,07,15,12,43,19.80
2017,07,15,12,44,19.70
2017,07,15,12,45,19.50
2017,07,15,12,46,19.40
2017,07,15,12,47,19.30
2017,07,15,12,48,19.30
2017,07,15,12,49,19.20
2017,07,15,12,50,19.10
2017,07,15,12,51,18.90
2017,07,15,12,52,18.90
2017,07,15,12,53,18.90
2017,07,15,12,54,18.90
2017,07,15,12,55,19.00
2017,07,15,12,56,19.00
2017,07,15,12,57,19.10
2017,07,15,12,58,19.20
2017,07,15,12,59,19.20
2017,07,15,13,00,19.30
2017,07,15,13,01,19.50
2017,07,15,13,02,19.50
2017,07,15,13,03,19.60
2017,07,15,13,04,19.70
2017,07,15,13,05,19.80
2017,07,15,13,06,19.80
2017,07,15,13,07,19.80
2017,07,15,13,08,19.80
2017,07,15,13,09,19.70
2017,07,15,13,10,19.60
2017,07,15,13,11,19.40
2017,07,15,13,12,19.20
2017,07,15,13,13,19.00
2017,07,15,13,14,18.80
2017,07,15,13,15,18.70
2017,07,15,13,16,18.60
2017,07,15,13,17,18.50
2017,07,15,13,18,18.50
2017,07,15,13,19,18.40
2017,07,15,13,20,18.40
2017,07,15,13,21,18.40
2017,07,15,13,22,18.40
2017,07,15,13,23,18.40
2017,07,15,13,24,18.50
2017,07,15,13,25,18.60
2017,07,15,13,26,18.60
2017,07,15,13,27,18.60
2017,07,15,13,28,18.60
2017,07,15,13,29,18.60
2017,07,15,13,30,18.60
2017,07,15,13,31,18.60
2017,07,15,13,32,18.50
2017,07,15,13,33,18.50
2017,07,15,13,34,18.40
2017,07,15,13,35,18.30
2017,07,15,13,36,18.20
2017,07,15,13,37,18.10
2017,07,15,13,38,18.10
2017,07,15,13,39,18.10
2017,07,15,13,40,18.10
2017,07,15,13,41,18.10
2017,07,15,13,42,18.00
2017,07,15,13,43,18.00
2017,07,15,13,44,18.00
2017,07,15,13,45,18.10
2017,07,15,13,46,18.10
2017,07,15,13,47,18.10
2017,07,15,13,48,18.10
2017,07,15,13,49,18.10
2017,07,15,13,50,18.20
2017,07,15,13,51,18.30
2017,07,15,13,52,18.40
2017,07,15,13,53,18.40
2017,07,15,13,54,18.30
2017,07,15,13,55,18.30
2017,07,15,13,56,18.20
2017,07,15,13,57,18.30
2017,07,15,13,58,18.40
2017,07,15,13,59,18.50
2017,07,15,14,00,18.50
2017,07,15,14,01,18.50
2017,07,15,14,02,18.40
2017,07,15,14,03,18.40
2017,07,15,14,04,18.30
2017,07,15,14,05,18.30
2017,07,15,14,06,18.30
2017,07,15,14,07,18.30
2017,07,15,14,08,18.20
2017,07,15,14,09,18.20
2017,07,15,14,10,18.20
2017,07,15,14,11,18.20
2017,07,15,14,12,18.10
2017,07,15,14,13,18.10
2017,07,15,14,14,18.00
2017,07,15,14,15,17.90
2017,07,15,14,16,17.90
2017,07,15,14,17,17.80
2017,07,15,14,18,17.80
2017,07,15,14,19,17.70
2017,07,15,14,20,17.70
2017,07,15,14,21,17.80
2017,07,15,14,22,17.80
2017,07,15,14,23,17.80
2017,07,15,14,24,17.80
2017,07,15,14,25,17.80
2017,07,15,14,26,17.80
2017,07,15,14,27,17.90
2017,07,15,14,28,17.90
2017,07,15,14,29,17.90
2017,07,15,14,30,18.00
2017,07,15,14,31,18.10
2017,07,15,14,32,18.10
2017,07,15,14,33,18.10
2017,07,15,14,34,18.10
2017,07,15,14,35,18.10
2017,07,15,14,36,18.10
2017,07,15,14,37,18.10
2017,07,15,14,38,18.10
2017,07,15,14,39,18.10
2017,07,15,14,40,18.10
2017,07,15,14,41,18.10
2017,07,15,14,42,18.10
2017,07,15,14,43,18.10
2017,07,15,14,44,18.10
2017,07,15,14,45,18.10
2017,07,15,14,46,18.10
2017,07,15,14,47,18.10
2017,07,15,14,48,18.00
2017,07,15,14,49,18.00
2017,07,15,14,50,18.00
2017,07,15,14,51,18.10
2017,07,15,14,52,18.10
2017,07,15,14,53,18.10
2017,07,15,14,54,18.10
2017,07,15,14,55,18.20
2017,07,15,14,56,18.20
2017,07,15,14,57,18.20
2017,07,15,14,58,18.30
2017,07,15,14,59,18.30
2017,07,15,15,00,18.30
2017,07,15,15,01,18.30
2017,07,15,15,02,18.30
2017,07,15,15,03,18.40
2017,07,15,15,04,18.40
2017,07,15,15,05,18.40
2017,07,15,15,06,18.50
2017,07,15,15,07,18.50
2017,07,15,15,08,18.40
2017,07,15,15,09,18.40
2017,07,15,15,10,18.30
2017,07,15,15,11,18.30
2017,07,15,15,12,18.30
2017,07,15,15,13,18.30
2017,07,15,15,14,18.20
2017,07,15,15,15,18.20
2017,07,15,15,16,18.20
2017,07,15,15,17,18.10
2017,07,15,15,18,18.10
2017,07,15,15,19,18.10
2017,07,15,15,20,18.10
2017,07,15,15,21,18.10
2017,07,15,15,22,18.10
2017,07,15,15,23,18.10
2017,07,15,15,24,18.00
2017,07,15,15,25,18.00
2017,07,15,15,26,17.90
2017,07,15,15,27,17.90
2017,07,15,15,28,17.90
2017,07,15,15,29,17.80
2017,07,15,15,30,17.80
2017,07,15,15,31,17.70
2017,07,15,15,32,17.70
2017,07,15,15,33,17.70
2017,07,15,15,34,17.60
2017,07,15,15,35,17.60
2017,07,15,15,36,17.60
2017,07,15,15,37,17.50
2017,07,15,15,38,17.50
2017,07,15,15,39,17.50
2017,07,15,15,40,17.50
2017,07,15,15,41,17.40
2017,07,15,15,42,17.40
2017,07,15,15,43,17.40
2017,07,15,15,44,17.40
2017,07,15,15,45,17.40
2017,07,15,15,46,17.40
2017,07,15,15,47,17.40
2017,07,15,15,48,17.40
2017,07,15,15,49,17.40
2017,07,15,15,50,17.40
2017,07,15,15,51,17.50
2017,07,15,15,52,17.50
2017,07,15,15,53,17.60
2017,07,15,15,54,17.60
2017,07,15,15,55,17.60
2017,07,15,15,56,17.60
2017,07,15,15,57,17.60
2017,07,15,15,58,17.60
2017,07,15,15,59,17.60
2017,07,15,16,00,17.70
2017,07,15,16,01,17.70
2017,07,15,16,02,17.70
2017,07,15,16,03,17.80
2017,07,15,16,04,17.80
2017,07,15,16,05,17.80
2017,07,15,16,06,17.90
2017,07,15,16,07,17.90
2017,07,15,16,08,17.90
2017,07,15,16,09,18.00
2017,07,15,16,10,18.00
2017,07,15,16,11,18.10
2017,07,15,16,12,18.10
2017,07,15,16,13,18.20
2017,07,15,16,14,18.20
2017,07,15,16,15,18.20
2017,07,15,16,16,18.20
2017,07,15,16,17,18.10
2017,07,15,16,18,18.10
2017,07,15,16,19,18.00
2017,07,15,16,20,18.00
2017,07,15,16,21,17.90
2017,07,15,16,22,17.90
2017,07,15,16,23,17.90
2017,07,15,16,24,17.90
2017,07,15,16,25,17.90
2017,07,15,16,26,18.00
2017,07,15,16,27,18.10
2017,07,15,16,28,18.10
2017,07,15,16,29,18.20
2017,07,15,16,30,18.20
2017,07,15,16,31,18.10
2017,07,15,16,32,18.10
2017,07,15,16,33,18.20
2017,07,15,16,34,18.20
2017,07,15,16,35,18.20
2017,07,15,16,36,18.30
2017,07,15,16,37,18.30
2017,07,15,16,38,18.30
2017,07,15,16,39,18.20
2017,07,15,16,40,18.20
2017,07,15,16,41,18.20
2017,07,15,16,42,18.30
2017,07,15,16,43,18.20
2017,07,15,16,44,18.10
2017,07,15,16,45,18.10
2017,07,15,16,46,18.00
2017,07,15,16,47,18.00
2017,07,15,16,48,17.90
2017,07,15,16,49,17.90
2017,07,15,16,50,17.90
2017,07,15,16,51,17.90
2017,07,15,16,52,17.80
2017,07,15,16,53,17.80
2017,07,15,16,54,17.70
2017,07,15,16,55,17.70
2017,07,15,16,56,17.60
2017,07,15,16,57,17.60
2017,07,15,16,58,17.60
2017,07,15,16,59,17.60
2017,07,15,17,00,17.60
2017,07,15,17,01,17.60
2017,07,15,17,02,17.60
2017,07,15,17,03,17.60
2017,07,15,17,04,17.60
2017,07,15,17,05,17.60
2017,07,15,17,06,17.50
2017,07,15,17,07,17.50
2017,07,15,17,08,17.60
2017,07,15,17,09,17.60
2017,07,15,17,10,17.70
2017,07,15,17,11,17.70
2017,07,15,17,12,17.70
2017,07,15,17,13,17.70
2017,07,15,17,14,17.70
2017,07,15,17,15,17.80
2017,07,15,17,16,17.90
2017,07,15,17,17,17.90
2017,07,15,17,18,18.00
2017,07,15,17,19,18.00